Date String (YYYY-MM-DD hh:mm:ss) UTC,Instrument flags,Ambient pressure (hPa),Sample flow (lpm),Bypass flow (lpm),Sample temperature (°C),Ambient temperature (°C),ASC tube jacket temperature (°C),LED temperature (°C),Box temperature (°C),Sample RH (%),Span deviation,Mass concentration (μg/m³),Mass concentration (μg/m³),Mass concentration (μg/m³)
DateTimeUTC,F1_M11,P_M11,Q1_M11,Q2_M11,T1_M11,T2_M11,T3_M11,T4_M11,T5_M11,U1_M11,ZSPAN_M11,X0_M11,X2_M11,X1_M11
2022-04-08 20:00:00,,0829.0,5.01,0.00,25.8,25.2,00.0,34.6,27.7,07.4,0000.0,0007.41,0003.06,0001.70
2022-04-08 20:01:00,,0828.5,5.00,0.00,25.8,25.2,00.0,34.6,27.7,07.3,0000.0,0008.07,0003.11,0001.70
2022-04-08 20:02:00,,0828.6,5.00,0.00,25.9,25.3,00.0,34.6,27.8,07.2,0000.0,0008.15,0003.12,0001.70
2022-04-08 20:03:00,,0828.5,4.99,0.00,25.9,25.3,00.0,34.7,27.8,07.6,0000.0,0008.75,0003.12,0001.69
2022-04-08 20:04:00,,0828.5,5.00,0.00,25.9,25.3,00.0,34.7,27.8,07.1,0000.0,0009.13,0003.13,0001.70
2022-04-08 20:05:00,,0828.4,5.01,0.00,25.9,25.3,00.0,34.7,27.8,07.4,0000.0,0009.31,0003.11,0001.69
2022-04-08 20:06:00,,0828.5,5.00,0.00,25.9,25.3,00.0,34.7,27.8,07.5,0000.0,0009.86,0003.12,0001.69
2022-04-08 20:07:00,,0828.4,4.99,0.00,26.0,25.3,00.0,34.7,27.9,07.4,0000.0,0009.88,0003.13,0001.69
2022-04-08 20:08:00,,0828.4,4.99,0.00,26.0,25.4,00.0,34.7,27.9,07.2,0000.0,0009.72,0003.11,0001.69
2022-04-08 20:09:00,,0828.4,5.00,0.00,26.0,25.4,00.0,34.7,27.9,07.0,0000.0,0009.62,0003.07,0001.69
2022-04-08 20:10:00,,0828.4,5.00,0.00,26.0,25.4,00.0,34.8,27.9,07.2,0000.0,0009.53,0002.97,0001.69
2022-04-08 20:11:00,,0828.3,5.00,0.00,26.0,25.4,00.0,34.8,27.9,07.2,0000.0,0009.76,0002.97,0001.68
2022-04-08 20:12:00,,0828.3,5.01,0.00,26.0,25.4,00.0,34.8,27.9,07.1,0000.0,0009.54,0002.99,0001.67
2022-04-08 20:13:00,,0828.2,5.01,0.00,26.1,25.4,00.0,34.8,28.0,07.6,0000.0,0009.72,0003.02,0001.67
2022-04-08 20:14:00,,0828.2,5.00,0.00,26.1,25.5,00.0,34.8,28.0,07.2,0000.0,0010.10,0003.00,0001.67
2022-04-08 20:15:00,,0828.3,4.99,0.00,26.1,25.5,00.0,34.9,28.0,07.0,0000.0,0009.89,0002.95,0001.66
2022-04-08 20:16:00,,0828.2,5.01,0.00,26.1,25.5,00.0,34.9,28.0,07.3,0000.0,0009.83,0002.89,0001.66
2022-04-08 20:17:00,,0828.1,5.00,0.00,26.1,25.5,00.0,34.9,28.0,07.2,0000.0,0010.38,0002.87,0001.67
2022-04-08 20:18:00,,0828.2,5.00,0.00,26.1,25.5,00.0,34.9,28.0,07.6,0000.0,0010.39,0002.92,0001.68
2022-04-08 20:19:00,,0828.1,5.00,0.00,26.1,25.5,00.0,34.9,28.0,07.1,0000.0,0010.67,0002.95,0001.67
2022-04-08 20:20:00,,0828.1,5.00,0.00,26.2,25.6,00.0,34.9,28.1,07.2,0000.0,0011.06,0003.01,0001.67
2022-04-08 20:21:00,,0828.1,5.00,0.00,26.2,25.6,00.0,34.9,28.1,07.7,0000.0,0011.36,0003.05,0001.67
2022-04-08 20:22:00,,0828.1,5.00,0.00,26.2,25.6,00.0,35.0,28.1,07.5,0000.0,0011.40,0003.00,0001.67
2022-04-08 20:23:00,,0828.1,5.00,0.00,26.2,25.6,00.0,35.0,28.0,07.1,0000.0,0010.95,0002.96,0001.66
2022-04-08 20:24:00,,0828.1,4.99,0.00,26.2,25.6,00.0,35.0,28.1,07.0,0000.0,0010.71,0002.95,0001.66
2022-04-08 20:25:00,,0828.0,5.02,0.00,26.2,25.6,00.0,35.0,28.1,06.9,0000.0,0010.17,0003.03,0001.67
2022-04-08 20:26:00,,0828.0,5.00,0.00,26.2,25.6,00.0,35.0,28.1,07.0,0000.0,0009.65,0003.04,0001.69
2022-04-08 20:27:00,,0828.0,5.00,0.00,26.3,25.7,00.0,35.0,28.2,07.1,0000.0,0009.84,0003.12,0001.70
2022-04-08 20:28:00,,0828.0,5.00,0.00,26.3,25.7,00.0,35.1,28.2,07.2,0000.0,0009.16,0003.14,0001.70
2022-04-08 20:29:00,,0827.9,5.00,0.00,26.3,25.7,00.0,35.1,28.2,06.8,0000.0,0008.72,0003.12,0001.71
2022-04-08 20:30:00,,0828.0,5.00,0.00,26.3,25.7,00.0,35.1,28.2,06.9,0000.0,0008.76,0003.10,0001.71
2022-04-08 20:31:00,,0827.9,4.99,0.00,26.3,25.7,00.0,35.1,28.2,06.9,0000.0,0008.80,0003.09,0001.74
2022-04-08 20:32:00,,0827.9,5.00,0.00,26.3,25.7,00.0,35.1,28.2,07.0,0000.0,0008.35,0003.04,0001.74
2022-04-08 20:33:00,,0827.9,5.00,0.00,26.3,25.7,00.0,35.1,28.2,06.7,0000.0,0008.08,0003.10,0001.76
2022-04-08 20:34:00,,0827.8,5.00,0.00,26.3,25.7,00.0,35.1,28.2,06.6,0000.0,0008.00,0003.07,0001.76
2022-04-08 20:35:00,,0827.8,5.00,0.00,26.3,25.7,00.0,35.2,28.2,06.9,0000.0,0008.03,0003.05,0001.75
2022-04-08 20:36:00,,0827.8,5.01,0.00,26.3,25.7,00.0,35.2,28.2,06.8,0000.0,0007.99,0002.96,0001.74
2022-04-08 20:37:00,,0827.8,4.99,0.00,26.4,25.7,00.0,35.2,28.2,06.9,0000.0,0008.20,0002.96,0001.74
2022-04-08 20:38:00,,0827.8,5.01,0.00,26.4,25.8,00.0,35.2,28.2,06.7,0000.0,0008.28,0002.92,0001.74
2022-04-08 20:39:00,,0827.8,5.00,0.00,26.4,25.8,00.0,35.2,28.2,06.7,0000.0,0008.63,0002.91,0001.72
2022-04-08 20:40:00,,0827.8,5.00,0.00,26.4,25.8,00.0,35.2,28.2,06.6,0000.0,0008.83,0003.01,0001.73
2022-04-08 20:41:00,,0827.8,5.00,0.00,26.4,25.8,00.0,35.2,28.2,06.7,0000.0,0008.48,0002.97,0001.74
2022-04-08 20:42:00,,0827.7,5.00,0.00,26.4,25.8,00.0,35.2,28.2,06.6,0000.0,0008.07,0002.88,0001.73
2022-04-08 20:43:00,,0827.7,4.99,0.00,26.4,25.8,00.0,35.2,28.3,06.8,0000.0,0007.99,0002.88,0001.74
2022-04-08 20:44:00,,0827.7,5.00,0.00,26.4,25.8,00.0,35.3,28.3,06.8,0000.0,0007.86,0002.88,0001.73
2022-04-08 20:45:00,,0827.7,5.00,0.00,26.5,25.9,00.0,35.3,28.4,07.3,0000.0,0008.00,0002.87,0001.74
2022-04-08 20:46:00,,0827.7,5.00,0.00,26.5,25.9,00.0,35.3,28.3,07.1,0000.0,0008.91,0002.85,0001.73
2022-04-08 20:47:00,,0827.7,5.00,0.00,26.5,25.9,00.0,35.3,28.4,06.9,0000.0,0009.02,0002.92,0001.74
2022-04-08 20:48:00,,0827.7,5.00,0.00,26.5,25.9,00.0,35.3,28.4,06.9,0000.0,0009.05,0002.92,0001.73
2022-04-08 20:49:00,,0827.6,4.99,0.00,26.5,25.9,00.0,35.3,28.4,07.1,0000.0,0008.63,0002.87,0001.72
2022-04-08 20:50:00,,0827.7,5.00,0.00,26.6,26.0,00.0,35.3,28.4,06.9,0000.0,0007.92,0002.83,0001.72
2022-04-08 20:51:00,,0827.6,5.00,0.00,26.6,26.0,00.0,35.4,28.4,07.0,0000.0,0009.03,0002.75,0001.69
2022-04-08 20:52:00,,0827.6,5.00,0.00,26.6,26.0,00.0,35.4,28.5,07.1,0000.0,0009.44,0002.76,0001.67
2022-04-08 20:53:00,,0827.6,5.00,0.00,26.6,26.0,00.0,35.4,28.5,07.0,0000.0,0009.77,0002.77,0001.66
2022-04-08 20:54:00,,0827.6,5.01,0.00,26.6,26.0,00.0,35.4,28.5,06.8,0000.0,0010.51,0002.75,0001.65
2022-04-08 20:55:00,,0827.5,5.00,0.00,26.6,26.0,00.0,35.4,28.5,07.0,0000.0,0010.65,0002.74,0001.65
2022-04-08 20:56:00,,0827.5,5.00,0.00,26.6,26.0,00.0,35.4,28.5,06.9,0000.0,0010.74,0002.78,0001.64
2022-04-08 20:57:00,,0827.5,4.99,0.00,26.7,26.0,00.0,35.4,28.5,06.6,0000.0,0010.21,0002.82,0001.65
2022-04-08 20:58:00,,0827.5,5.00,0.00,26.7,26.1,00.0,35.5,28.5,06.7,0000.0,0010.22,0002.81,0001.64
2022-04-08 20:59:00,,0827.5,4.99,0.00,26.7,26.1,00.0,35.5,28.6,07.2,0000.0,0010.19,0002.85,0001.64
